User: anonymous   Login
Location: Godiavel Galaoual
(15.2485°N, 12.6604°W)
Time: 10:55:31
(UTC+00:00)
Language:

RESURS O1 DEB - Orbit

View from above orbital plane
View from above orbital plane
View from above satellite
View from above satellite

Ground track
Ground track

The orbit data is extracted from the following two-line orbital elements,

1 47205U 94074CR  21333.08883991  .00008958  00000-0  10892-2 0  9992
2 47205  97.9056  21.1100 0004737 191.5634 168.5471 14.83697330 56053
Epoch (UTC): 29 November 2021 02:07:55
Eccentricity: 0.0004737
inclination: 97.9056°
perigee height: 614 km
apogee height: 621 km
right ascension of ascending node: 21.1100°
argument of perigee: 191.5634°
revolutions per day: 14.83697330
mean anomaly at epoch: 168.5471°
orbit number at epoch: 5605

The dashed part of the orbit path shows where the satellite is in the earth's shadow,  

DLR